Location: Ballingbuur
(53.0000°N, 5.7667°E)
Time: 21:29:17
(UTC+00:00)

Cosmos 1937 Rocket - Visible Passes

Search period start: 10 April 2021 00:00
Search period end: 20 April 2021 00:00
Orbit: 747 x 779 km, 74.0° (Epoch: 10 April)

Date Brightness Start Highest point End Pass type
(mag) Time Alt. Az. Time Alt. Az. Time Alt. Az.
10 Apr 5.7 03:21:39 10° SSE 03:25:38 23° E 03:29:37 10° NE visible
11 Apr 6.1 02:44:51 10° SE 02:47:32 14° E 02:50:13 10° ENE visible
12 Apr 4.3 03:45:18 10° S 03:50:16 51° ESE 03:55:15 10° NNE visible
13 Apr 5.1 03:07:27 10° SSE 03:11:59 32° ESE 03:16:32 10° NE visible
14 Apr 5.7 02:30:06 10° SE 02:33:48 20° E 02:37:32 10° NE visible
15 Apr 6.1 01:53:38 10° ESE 01:55:44 13° E 01:57:50 10° ENE visible
15 Apr 3.7 03:31:38 10° SSW 03:36:45 73° ESE 03:41:54 10° NNE visible
16 Apr 4.4 02:53:31 10° S 02:58:24 45° ESE 03:03:18 10° NE visible
17 Apr 5.1 02:15:47 10° SSE 02:20:09 29° E 02:24:31 10° NE visible
17 Apr 3.8 03:56:49 10° SW 04:01:51 53° WNW 04:06:54 10° NNE visible
18 Apr 5.7 01:38:35 10° SE 01:42:00 18° E 01:45:24 10° NE visible
18 Apr 3.5 03:18:14 10° SSW 03:23:18 82° WNW 03:28:29 10° NNE visible
19 Apr 6.0 01:02:42 10° ESE 01:03:57 11° E 01:05:12 10° ENE visible
19 Apr 3.8 02:40:42 15° S 02:44:52 64° ESE 02:49:58 10° NNE visible
